User: anonymous   Login
Location: Caltech
(34.1382°N, 118.1253°W)
Time: 12:01:49
(UTC-07:00)
Language:

Cosmos 1606 - Orbit

View from above orbital plane
View from above orbital plane
View from above satellite
View from above satellite

Ground track
Ground track

The orbit data is extracted from the following two-line orbital elements,

1 15369U 84111A   16269.39279429  .00001835  00000-0  95922-4 0  9996
2 15369  82.5304  22.9414 0019690  95.7822 264.5656 15.15092178740361
Epoch (UTC): 25 September 2016 09:25:37
Eccentricity: 0.0019690
inclination: 82.5304°
perigee height: 507 km
apogee height: 534 km
right ascension of ascending node: 22.9414°
argument of perigee: 95.7822°
revolutions per day: 15.15092178
mean anomaly at epoch: 264.5656°
orbit number at epoch: 74036

The dashed part of the orbit path shows where the satellite is in the earth's shadow,  

DLR